Hourly Data Report for January 25, 2003

SHERBROOKE A
QUEBEC

45°26'00.000" N
71°41'00.000" W
241.40 m
7028124
71610
YSC

Download Data

Hourly Data (January 2003)
Hourly Data Report for January 25, 2003
TIME
LST
Temp Definition
°C
Dew Point Definition
°C
Rel Hum Definition
%
Precip. Amount Definition
mm

Wind Dir Definition
10's deg

Wind Spd Definition
km/h
Visibility Definition
km
Stn Press Definition
kPa
Hmdx Definition


Wind Chill Definition


Weather Definition


00:00 -25.4 -30.6 62   21 6 15.0 99.07   -31  
01:00
02:00
03:00
04:00 -26.9 -32.3 60   10 4 15.0 98.99   -31  
05:00 -25.2 -30.6 61     0 15.0 98.97      
06:00 -23.8 -28.9 63   8 6 15.0 98.99   -29  
07:00 -23.0 -28.1 63   9 4 15.0 98.98   -27  
08:00 -21.3 -26.3 64     0 24.1 98.96     Mostly Cloudy
09:00 -18.6 -23.5 65     0 24.1 98.91     Mostly Cloudy
10:00 -15.7 -21.6 60     0 24.1 98.91     Mostly Cloudy
11:00 -12.4 -21.0 49   23 6 24.1 98.81   -16 Mostly Cloudy
12:00 -11.6 -18.6 56   26 6 4.8 98.76   -15 Snow
13:00 -9.8 -16.2 60   22 9 19.3 98.67   -15 Snow
14:00 -8.4 -14.3 62   22 13 12.9 98.59   -14 Snow
15:00 -7.6 -12.6 67   20 13 4.8 98.58   -13 Snow
16:00 -7.8 -11.8 73   20 9 19.3 98.58   -12 Snow
17:00 -7.9 -13.4 65   19 9 24.1 98.57   -12 Snow
18:00 -8.2 -13.4 66   19 11 9.7 98.61   -13 Snow
19:00 -8.5 -13.2 69   20 11 15.0 98.62   -14  
20:00 -8.7 -13.5 68   20 9 15.0 98.61   -13  
21:00 -8.6 -13.7 67   21 9 15.0 98.60   -13  
22:00 -8.4 -13.7 66   21 11 15.0 98.59   -14  
23:00 -8.5 -14.2 63   20 15 15.0 98.59   -15  

Notes on Data Quality.

Legend

  • E = Estimated
  • M = Missing
  • NA = Not Available*
  • [empty] = Indicates an unobserved value
Date modified: